When you browse on this site, cookies collect data to enhance your experience and personalize the content and advertising you see.
Visit our Privacy Policy to learn more. By continuing to use the site, you agree to this use of cookies and data.
  • Em Portugal
  • Lista de países
  • Para 7 dias
  • Temperatura da água
  • Mapa do tempo
  • Widgets de tempo
  • user-avatar
    Iniciar Sessão

    Previsão horária em Faro

    Hoje, 17 Fevereiro, Segunda-feira

    Tempo Temperatura Precipitação Vento Pressão Humidade
    00:00 +12°C° 0 mm 3 m/s 770 mmHg 87%
    01:00 +12°C° 0 mm 3 m/s 769 mmHg 88%
    02:00 +11°C° 0 mm 3 m/s 769 mmHg 89%
    03:00 +11°C° 0 mm 3 m/s 769 mmHg 91%
    04:00 +11°C° 0 mm 3 m/s 769 mmHg 93%
    05:00 +12°C° 0 mm 2 m/s 769 mmHg 95%
    06:00 +13°C° 0 mm 2 m/s 770 mmHg 92%
    07:00 +14°C° 0 mm 2 m/s 770 mmHg 90%
    08:00 +16°C° 0 mm 2 m/s 770 mmHg 88%
    09:00 +17°C° 0 mm 2 m/s 770 mmHg 82%
    10:00 +19°C° 0 mm 2 m/s 770 mmHg 75%
    11:00 +20°C° 0 mm 2 m/s 770 mmHg 69%
    12:00 +21°C° 0 mm 3 m/s 770 mmHg 68%
    13:00 +21°C° 0 mm 3 m/s 770 mmHg 68%
    14:00 +21°C° 0 mm 3 m/s 769 mmHg 67%
    15:00 +20°C° 0.1 mm 4 m/s 769 mmHg 74%
    16:00 +19°C° 0.1 mm 4 m/s 769 mmHg 80%
    17:00 +18°C° 0.1 mm 4 m/s 769 mmHg 87%
    18:00 +15°C° 0 mm 5 m/s 770 mmHg 85%
    19:00 +14°C° 0 mm 6 m/s 770 mmHg 84%
    20:00 +12°C° 0 mm 7 m/s 770 mmHg 82%
    21:00 +11°C° 0 mm 7 m/s 770 mmHg 78%
    22:00 +11°C° 0 mm 7 m/s 770 mmHg 74%
    23:00 +10°C° 0 mm 6 m/s 770 mmHg 71%

    Amanhã, 18 Fevereiro, Terça-feira

    Tempo Temperatura Precipitação Vento Pressão Humidade
    00:00 +9°C° 0 mm 6 m/s 770 mmHg 73%
    01:00 +9°C° 0 mm 6 m/s 770 mmHg 75%
    02:00 +8°C° 0 mm 6 m/s 770 mmHg 78%
    03:00 +8°C° 0 mm 6 m/s 770 mmHg 78%
    04:00 +6°C° 0 mm 7 m/s 770 mmHg 78%
    05:00 +6°C° 0 mm 7 m/s 769 mmHg 79%
    06:00 +8°C° 0 mm 7 m/s 770 mmHg 76%
    07:00 +8°C° 0 mm 7 m/s 770 mmHg 73%
    08:00 +9°C° 0 mm 7 m/s 770 mmHg 70%
    09:00 +11°C° 0 mm 7 m/s 770 mmHg 64%
    10:00 +14°C° 0 mm 6 m/s 770 mmHg 58%
    11:00 +16°C° 0 mm 6 m/s 770 mmHg 52%
    12:00 +16°C° 0 mm 6 m/s 770 mmHg 51%
    13:00 +17°C° 0 mm 5 m/s 769 mmHg 51%
    14:00 +17°C° 0 mm 5 m/s 769 mmHg 51%
    15:00 +16°C° 0 mm 5 m/s 769 mmHg 58%
    16:00 +15°C° 0 mm 5 m/s 769 mmHg 65%
    17:00 +14°C° 0 mm 5 m/s 769 mmHg 72%
    18:00 +13°C° 0 mm 6 m/s 769 mmHg 74%
    19:00 +13°C° 0 mm 6 m/s 769 mmHg 75%
    20:00 +11°C° 0 mm 7 m/s 770 mmHg 77%
    21:00 +10°C° 0 mm 7 m/s 770 mmHg 79%
    22:00 +10°C° 0 mm 7 m/s 770 mmHg 81%
    23:00 +9°C° 0 mm 7 m/s 770 mmHg 83%

    Depois de amanhã, 19 Fevereiro, Quarta-feira

    Tempo Temperatura Precipitação Vento Pressão Humidade
    00:00 +9°C° 0 mm 6 m/s 770 mmHg 84%
    01:00 +8°C° 0 mm 6 m/s 769 mmHg 85%
    02:00 +8°C° 0 mm 5 m/s 769 mmHg 86%
    03:00 +8°C° 0 mm 4 m/s 769 mmHg 86%
    04:00 +8°C° 0 mm 4 m/s 769 mmHg 87%
    05:00 +9°C° 0 mm 3 m/s 769 mmHg 87%
    06:00 +10°C° 0 mm 3 m/s 769 mmHg 85%
    07:00 +12°C° 0 mm 3 m/s 769 mmHg 82%
    08:00 +15°C° 0 mm 2 m/s 770 mmHg 80%
    09:00 +16°C° 0 mm 3 m/s 770 mmHg 73%
    10:00 +18°C° 0 mm 3 m/s 770 mmHg 65%
    11:00 +20°C° 0 mm 3 m/s 770 mmHg 58%
    12:00 +20°C° 0 mm 3 m/s 769 mmHg 57%
    13:00 +21°C° 0 mm 3 m/s 768 mmHg 56%
    14:00 +21°C° 0 mm 2 m/s 768 mmHg 54%
    15:00 +20°C° 0 mm 2 m/s 767 mmHg 62%
    16:00 +18°C° 0 mm 2 m/s 767 mmHg 71%
    17:00 +18°C° 0 mm 1 m/s 767 mmHg 79%
    18:00 +16°C° 0 mm 1 m/s 767 mmHg 82%
    19:00 +15°C° 0 mm 1 m/s 767 mmHg 84%
    20:00 +14°C° 0 mm 2 m/s 767 mmHg 87%
    21:00 +14°C° 0 mm 2 m/s 767 mmHg 89%
    22:00 +12°C° 0 mm 3 m/s 767 mmHg 91%
    23:00 +12°C° 0 mm 4 m/s 767 mmHg 93%

    20 Fevereiro, Quinta-feira

    Tempo Temperatura Precipitação Vento Pressão Humidade
    00:00 +12°C° 0 mm 4 m/s 767 mmHg 93%
    01:00 +12°C° 0 mm 5 m/s 766 mmHg 94%
    02:00 +12°C° 0 mm 5 m/s 766 mmHg 95%
    03:00 +12°C° 0 mm 5 m/s 766 mmHg 94%
    04:00 +11°C° 0 mm 4 m/s 765 mmHg 93%
    05:00 +11°C° 0 mm 4 m/s 765 mmHg 92%
    06:00 +12°C° 0 mm 4 m/s 765 mmHg 89%
    07:00 +13°C° 0 mm 4 m/s 766 mmHg 85%
    08:00 +14°C° 0 mm 4 m/s 766 mmHg 82%
    09:00 +17°C° 0 mm 3 m/s 766 mmHg 76%
    10:00 +18°C° 0 mm 3 m/s 766 mmHg 70%
    11:00 +20°C° 0 mm 3 m/s 766 mmHg 64%
    12:00 +20°C° 0.1 mm 2 m/s 766 mmHg 64%
    13:00 +20°C° 0.1 mm 2 m/s 765 mmHg 63%
    14:00 +20°C° 0.1 mm 2 m/s 765 mmHg 62%
    15:00 +19°C° 0.1 mm 3 m/s 765 mmHg 66%
    16:00 +18°C° 0.1 mm 3 m/s 764 mmHg 70%
    17:00 +17°C° 0.1 mm 4 m/s 764 mmHg 73%
    18:00 +14°C° 0 mm 6 m/s 765 mmHg 75%
    19:00 +12°C° 0 mm 7 m/s 765 mmHg 77%
    20:00 +11°C° 0 mm 9 m/s 765 mmHg 79%
    21:00 +11°C° 0 mm 8 m/s 766 mmHg 81%
    22:00 +10°C° 0 mm 8 m/s 766 mmHg 83%
    23:00 +10°C° 0 mm 8 m/s 766 mmHg 85%

    21 Fevereiro, Sexta-feira

    Tempo Temperatura Precipitação Vento Pressão Humidade
    00:00 +9°C° 0 mm 7 m/s 766 mmHg 86%
    01:00 +9°C° 0 mm 7 m/s 766 mmHg 88%
    02:00 +9°C° 0 mm 7 m/s 765 mmHg 89%
    03:00 +8°C° 0 mm 6 m/s 765 mmHg 87%
    04:00 +8°C° 0 mm 6 m/s 765 mmHg 85%
    05:00 +8°C° 0 mm 6 m/s 765 mmHg 83%
    12:00 +21°C° 0 mm 4 m/s 767 mmHg 50%
    13:00 +21°C° 0 mm 4 m/s 767 mmHg 49%
    14:00 +22°C° 0 mm 4 m/s 767 mmHg 49%
    15:00 +20°C° 0 mm 4 m/s 767 mmHg 57%
    16:00 +18°C° 0 mm 3 m/s 767 mmHg 66%
    17:00 +17°C° 0 mm 3 m/s 767 mmHg 74%
    18:00 +16°C° 0 mm 3 m/s 768 mmHg 77%
    19:00 +14°C° 0 mm 4 m/s 769 mmHg 80%
    20:00 +13°C° 0 mm 4 m/s 769 mmHg 83%
    21:00 +13°C° 0 mm 4 m/s 770 mmHg 85%
    22:00 +12°C° 0 mm 5 m/s 770 mmHg 88%
    23:00 +12°C° 0 mm 5 m/s 770 mmHg 91%

    22 Fevereiro, Sábado

    Tempo Temperatura Precipitação Vento Pressão Humidade
    00:00 +12°C° 0 mm 4 m/s 770 mmHg 90%
    01:00 +11°C° 0 mm 4 m/s 770 mmHg 89%
    02:00 +11°C° 0 mm 3 m/s 770 mmHg 88%
    03:00 +11°C° 0 mm 4 m/s 770 mmHg 89%
    04:00 +11°C° 0 mm 4 m/s 770 mmHg 89%
    05:00 +11°C° 0 mm 4 m/s 770 mmHg 90%
    06:00 +12°C° 0 mm 4 m/s 771 mmHg 86%
    07:00 +13°C° 0 mm 5 m/s 771 mmHg 81%
    08:00 +14°C° 0 mm 5 m/s 771 mmHg 77%
    09:00 +15°C° 0 mm 5 m/s 772 mmHg 70%
    10:00 +17°C° 0 mm 5 m/s 772 mmHg 64%
    11:00 +20°C° 0 mm 5 m/s 772 mmHg 57%
    12:00 +21°C° 0 mm 5 m/s 771 mmHg 55%
    13:00 +21°C° 0 mm 5 m/s 771 mmHg 54%
    14:00 +22°C° 0 mm 5 m/s 770 mmHg 52%
    15:00 +20°C° 0 mm 4 m/s 770 mmHg 58%
    16:00 +19°C° 0 mm 4 m/s 770 mmHg 64%
    17:00 +17°C° 0 mm 3 m/s 770 mmHg 71%
    18:00 +16°C° 0 mm 3 m/s 770 mmHg 75%
    19:00 +14°C° 0 mm 4 m/s 771 mmHg 79%
    20:00 +13°C° 0 mm 4 m/s 771 mmHg 84%
    21:00 +12°C° 0 mm 5 m/s 771 mmHg 86%
    22:00 +10°C° 0 mm 6 m/s 771 mmHg 88%
    23:00 +10°C° 0 mm 7 m/s 771 mmHg 91%
    Mostrar mais